Weather History for Waco, TX

Change the Weather History Date:

Saturday, November 10, 2012

  Actual Average Record
Temperature  
Mean Temperature 73 °F 60 °F  
Max Temperature 82 °F 71 °F 88 °F (1911)
Min Temperature 63 °F 49 °F 29 °F (1950)
Degree Days  
Heating Degree Days 0 7  
Month to date heating degree days 12 57  
Since 1 July heating degree days 122 124  
Cooling Degree Days 8 2  
Month to date cooling degree days 32 22  
Year to date cooling degree days 3203 2778  
Growing Degree Days 22 (Base 50)    
Moisture  
Dew Point 60 °F    
Average Humidity 67    
Maximum Humidity 90    
Minimum Humidity 43    
Precipitation  
Precipitation 0.00 in 0.10 in 2.02 in (1919)
Month to date precipitation T 1.04  
Year to date precipitation 31.53 30.16  
Snow  
Snow 0.00 in 0.00 in 0.00 in ()
Month to date snowfall 0.0 0.0  
Since 1 July snowfall 0.0 0.0  
Since 1 September snowfall 0.0 0.0  
Snow Depth 0.00 in    
Sea Level Pressure  
Sea Level Pressure 29.93 in    
Wind  
Wind Speed 18 mph (SSE)    
Max Wind Speed 29 mph    
Max Gust Speed 36 mph    
Visibility 10 miles    
Events      
T = Trace of Precipitation, MM = Missing Value Source: NWS Daily Summary

Daily Weather History Graph

Daily Weather History Graph

Search for Another Location

Airport:

Trip Planner

Search our weather history database for the weather conditions in past years. The results will help you decide how hot, cold, wet, or windy it might be!

Date:

Astronomy

Nov. 10, 2012 Rise Set
Actual Time 6:53 AM CST 5:32 PM CST
Civil Twilight 6:27 AM CST 5:57 PM CST
Nautical Twilight 5:58 AM CST 6:27 PM CST
Astronomical Twilight 5:29 AM CST 6:55 PM CST
Moon 3:11 AM CST (11/10) 3:09 PM CST (11/10)
Length of Visible Light 11h 30m
Length of Day
10h 39m
Waning Crescent, 14% of the Moon is Illuminated
Nov 10
Waning Crescent
Nov 13
New
Nov 20
First Quarter
Nov 28
Full
Dec 6
Last Quarter

Hourly Weather History & Observations

Time (CST) Temp. Heat Index Dew Point Humidity Pressure Visibility Wind Dir Wind Speed Gust Speed Precip Events Conditions
12:36 AM 66.2 °F - 60.8 °F 83% 30.02 in 10.0 mi South 16.1 mph - N/A   Mostly Cloudy
12:51 AM 66.9 °F - 61.0 °F 81% 30.00 in 10.0 mi South 16.1 mph - N/A   Overcast
1:18 AM 66.2 °F - 60.8 °F 83% 30.02 in 10.0 mi South 16.1 mph 24.2 mph N/A   Scattered Clouds
1:51 AM 66.0 °F - 61.0 °F 84% 29.99 in 10.0 mi SSE 17.3 mph - N/A   Partly Cloudy
2:51 AM 64.9 °F - 61.0 °F 87% 29.97 in 10.0 mi SSE 15.0 mph - N/A   Partly Cloudy
3:51 AM 64.9 °F - 60.1 °F 84% 29.96 in 10.0 mi SSE 13.8 mph - N/A   Partly Cloudy
4:51 AM 64.0 °F - 60.1 °F 87% 29.97 in 10.0 mi South 13.8 mph - N/A   Partly Cloudy
5:51 AM 64.0 °F - 60.1 °F 87% 29.97 in 10.0 mi SSE 13.8 mph - N/A   Clear
6:51 AM 63.0 °F - 59.0 °F 87% 29.98 in 10.0 mi SSE 11.5 mph - N/A   Clear
7:51 AM 64.0 °F - 60.1 °F 87% 29.99 in 10.0 mi SSE 13.8 mph - N/A   Mostly Cloudy
8:51 AM 68.0 °F - 60.1 °F 76% 30.01 in 10.0 mi SSE 17.3 mph 20.7 mph N/A   Scattered Clouds
9:51 AM 73.0 °F - 61.0 °F 66% 30.00 in 10.0 mi South 18.4 mph 26.5 mph N/A   Scattered Clouds
9:59 AM 73.4 °F - 60.8 °F 65% 30.02 in 10.0 mi South 17.3 mph 26.5 mph N/A   Mostly Cloudy
10:51 AM 75.0 °F - 61.0 °F 62% 29.99 in 10.0 mi South 23.0 mph 32.2 mph N/A   Mostly Cloudy
11:51 AM 78.1 °F - 59.0 °F 52% 29.95 in 10.0 mi South 24.2 mph 33.4 mph N/A   Overcast
12:51 PM 79.0 °F - 59.0 °F 50% 29.93 in 10.0 mi South 23.0 mph 31.1 mph N/A   Mostly Cloudy
1:51 PM 80.1 °F 80.7 °F 59.0 °F 48% 29.88 in 10.0 mi South 23.0 mph 31.1 mph N/A   Overcast
2:51 PM 81.0 °F 81.1 °F 57.9 °F 45% 29.87 in 10.0 mi South 20.7 mph 27.6 mph N/A   Partly Cloudy
3:51 PM 82.4 °F 82.0 °F 57.2 °F 42% 29.87 in 10.0 mi South 23.0 mph 28.8 mph N/A   Partly Cloudy
4:51 PM 78.8 °F - 57.2 °F 47% 29.86 in 10.0 mi SSE 20.7 mph 33.4 mph N/A   Mostly Cloudy
5:51 PM 75.9 °F - 57.9 °F 54% 29.85 in 10.0 mi SSE 15.0 mph 23.0 mph N/A   Clear
6:51 PM 75.0 °F - 57.9 °F 55% 29.85 in 10.0 mi SSE 16.1 mph - N/A   Clear
7:51 PM 73.9 °F - 60.1 °F 62% 29.86 in 10.0 mi SSE 18.4 mph - N/A   Clear
8:51 PM 73.0 °F - 60.1 °F 64% 29.88 in 10.0 mi South 18.4 mph 25.3 mph N/A   Clear
9:51 PM 72.0 °F - 60.1 °F 66% 29.88 in 10.0 mi South 15.0 mph 26.5 mph N/A   Clear
10:51 PM 71.1 °F - 62.1 °F 73% 29.87 in 10.0 mi SSE 17.3 mph 24.2 mph N/A   Mostly Cloudy
11:41 PM 71.6 °F - 64.4 °F 78% 29.87 in 10.0 mi South 17.3 mph 27.6 mph N/A   Mostly Cloudy
11:48 PM 71.6 °F - 64.4 °F 78% 29.87 in 10.0 mi South 19.6 mph 27.6 mph N/A   Mostly Cloudy
11:51 PM 71.6 °F - 64.4 °F 78% 29.87 in 10.0 mi South 18.4 mph 27.6 mph N/A   Mostly Cloudy